Time,TemperatureF,DewpointF,PressureIn,WindDirection,WindDirectionDegrees,WindSpeedMPH,WindSpeedGustMPH,Humidity,HourlyPrecipIn,Conditions,Clouds,dailyrainin,SolarRadiationWatts/m^2,SoftwareType,DateUTC
2013-10-08 00:05:00,75.1,69.9,29.84,WSW,243,6.0,6.0,84,0.00,,,0.00,0,Wunderground v.1.15,2013-10-08 04:05:00,
2013-10-08 00:06:00,75.1,69.9,29.84,SW,229,6.0,6.0,84,0.00,,,0.00,0,Wunderground v.1.15,2013-10-08 04:06:00,
2013-10-08 00:09:00,75.1,69.9,29.84,SW,229,6.0,7.0,84,0.00,,,0.00,0,Wunderground v.1.15,2013-10-08 04:09:00,
2013-10-08 00:10:00,75.1,69.9,29.84,SW,216,6.0,7.0,84,0.00,,,0.00,0,Wunderground v.1.15,2013-10-08 04:10:00,
2013-10-08 00:13:00,75.1,69.9,29.84,SW,219,5.0,7.0,84,0.00,,,0.00,0,Wunderground v.1.15,2013-10-08 04:13:00,
2013-10-08 00:16:00,75.1,69.9,29.84,SW,229,4.0,6.0,84,0.00,,,0.00,0,Wunderground v.1.15,2013-10-08 04:16:00,
2013-10-08 00:21:00,75.0,69.8,29.84,SW,215,4.0,7.0,84,0.00,,,0.00,0,Wunderground v.1.15,2013-10-08 04:21:00,
2013-10-08 00:27:00,75.0,69.8,29.83,SSW,209,5.0,7.0,84,0.00,,,0.00,0,Wunderground v.1.15,2013-10-08 04:27:00,
2013-10-08 00:32:00,75.0,69.8,29.83,SW,236,6.0,7.0,84,0.00,,,0.00,0,Wunderground v.1.15,2013-10-08 04:32:00,
2013-10-08 00:38:00,75.1,69.9,29.83,WSW,242,5.0,7.0,84,0.00,,,0.00,0,Wunderground v.1.15,2013-10-08 04:38:00,
2013-10-08 00:43:00,75.1,69.9,29.83,SW,226,6.0,8.0,84,0.00,,,0.00,0,Wunderground v.1.15,2013-10-08 04:43:00,
2013-10-08 00:49:00,75.1,69.9,29.83,SW,227,5.0,7.0,84,0.00,,,0.00,0,Wunderground v.1.15,2013-10-08 04:49:00,
2013-10-08 00:55:00,75.2,70.0,29.83,SW,230,6.0,7.0,84,0.00,,,0.00,0,Wunderground v.1.15,2013-10-08 04:55:00,
2013-10-08 01:05:00,75.1,69.9,29.83,SW,221,5.0,5.0,84,0.00,,,0.00,0,Wunderground v.1.15,2013-10-08 05:05:00,
2013-10-08 01:10:00,75.1,69.9,29.82,WSW,246,5.0,6.0,84,0.00,,,0.00,0,Wunderground v.1.15,2013-10-08 05:10:00,
2013-10-08 01:16:00,75.1,69.9,29.82,WSW,241,5.0,6.0,84,0.00,,,0.00,0,Wunderground v.1.15,2013-10-08 05:16:00,
2013-10-08 01:21:00,75.1,69.9,29.82,SW,224,5.0,8.0,84,0.00,,,0.00,0,Wunderground v.1.15,2013-10-08 05:21:00,
2013-10-08 01:26:00,75.1,69.9,29.82,SW,216,4.0,5.0,84,0.00,,,0.00,0,Wunderground v.1.15,2013-10-08 05:26:00,
2013-10-08 01:32:00,75.1,69.9,29.82,SW,228,5.0,5.0,84,0.00,,,0.00,0,Wunderground v.1.15,2013-10-08 05:32:00,
2013-10-08 01:38:00,75.0,69.8,29.82,SW,226,4.0,6.0,84,0.00,,,0.00,0,Wunderground v.1.15,2013-10-08 05:38:00,
2013-10-08 01:44:00,74.9,69.7,29.82,SW,232,4.0,4.0,84,0.00,,,0.00,0,Wunderground v.1.15,2013-10-08 05:44:00,
2013-10-08 01:49:00,75.0,69.8,29.82,SW,230,4.0,8.0,84,0.00,,,0.00,0,Wunderground v.1.15,2013-10-08 05:49:00,
2013-10-08 01:54:00,75.0,69.8,29.83,SW,226,4.0,6.0,84,0.00,,,0.00,0,Wunderground v.1.15,2013-10-08 05:54:00,
2013-10-08 02:05:00,75.0,69.8,29.83,SW,214,3.0,4.0,84,0.00,,,0.00,0,Wunderground v.1.15,2013-10-08 06:05:00,
2013-10-08 02:10:00,75.0,69.8,29.83,SW,227,3.0,5.0,84,0.00,,,0.00,0,Wunderground v.1.15,2013-10-08 06:10:00,
2013-10-08 02:15:00,75.1,69.9,29.83,SW,225,4.0,4.0,84,0.00,,,0.00,0,Wunderground v.1.15,2013-10-08 06:15:00,
2013-10-08 02:21:00,75.1,69.9,29.83,SW,225,4.0,5.0,84,0.00,,,0.00,0,Wunderground v.1.15,2013-10-08 06:21:00,
2013-10-08 02:27:00,75.0,69.8,29.83,WSW,240,3.0,4.0,84,0.00,,,0.00,0,Wunderground v.1.15,2013-10-08 06:27:00,
2013-10-08 02:33:00,75.0,69.8,29.83,WSW,239,3.0,5.0,84,0.00,,,0.00,0,Wunderground v.1.15,2013-10-08 06:33:00,
2013-10-08 02:38:00,75.0,69.8,29.83,SW,217,3.0,4.0,84,0.00,,,0.00,0,Wunderground v.1.15,2013-10-08 06:38:00,
2013-10-08 02:44:00,75.0,69.8,29.83,SW,227,3.0,5.0,84,0.00,,,0.00,0,Wunderground v.1.15,2013-10-08 06:44:00,
2013-10-08 02:49:00,75.0,69.8,29.83,SSW,196,3.0,4.0,84,0.00,,,0.00,0,Wunderground v.1.15,2013-10-08 06:49:00,
2013-10-08 02:54:00,75.0,69.8,29.82,SW,221,3.0,7.0,84,0.00,,,0.00,0,Wunderground v.1.15,2013-10-08 06:54:00,
2013-10-08 03:05:00,75.1,69.9,29.83,SSW,209,3.0,3.0,84,0.00,,,0.00,0,Wunderground v.1.15,2013-10-08 07:05:00,
2013-10-08 03:10:00,75.0,69.8,29.83,SW,217,3.0,3.0,84,0.00,,,0.00,0,Wunderground v.1.15,2013-10-08 07:10:00,
2013-10-08 03:16:00,75.0,69.8,29.83,SSW,211,3.0,3.0,84,0.00,,,0.00,0,Wunderground v.1.15,2013-10-08 07:16:00,
2013-10-08 03:21:00,74.9,69.7,29.83,SW,228,4.0,4.0,84,0.00,,,0.00,0,Wunderground v.1.15,2013-10-08 07:21:00,
2013-10-08 03:26:00,74.9,69.7,29.83,WSW,256,4.0,5.0,84,0.00,,,0.00,0,Wunderground v.1.15,2013-10-08 07:26:00,
2013-10-08 03:31:00,74.9,69.7,29.83,SSW,206,4.0,7.0,84,0.00,,,0.00,0,Wunderground v.1.15,2013-10-08 07:31:00,
2013-10-08 03:37:00,74.9,69.7,29.83,SW,226,4.0,7.0,84,0.00,,,0.00,0,Wunderground v.1.15,2013-10-08 07:37:00,
2013-10-08 03:42:00,74.9,69.7,29.83,SW,231,4.0,7.0,84,0.00,,,0.00,0,Wunderground v.1.15,2013-10-08 07:42:00,
2013-10-08 03:48:00,74.9,69.7,29.83,WSW,241,4.0,6.0,84,0.00,,,0.00,0,Wunderground v.1.15,2013-10-08 07:48:00,
2013-10-08 03:54:00,74.9,69.7,29.83,SW,226,4.0,6.0,84,0.00,,,0.00,0,Wunderground v.1.15,2013-10-08 07:54:00,
2013-10-08 03:59:00,74.9,69.7,29.83,SW,223,4.0,4.0,84,0.00,,,0.00,0,Wunderground v.1.15,2013-10-08 07:59:00,
2013-10-08 04:05:00,74.9,69.7,29.83,SW,225,3.0,4.0,84,0.00,,,0.00,0,Wunderground v.1.15,2013-10-08 08:05:00,
2013-10-08 04:10:00,74.9,69.7,29.83,WSW,238,3.0,6.0,84,0.00,,,0.00,0,Wunderground v.1.15,2013-10-08 08:10:00,
2013-10-08 04:16:00,74.9,69.7,29.83,SW,222,4.0,4.0,84,0.00,,,0.00,0,Wunderground v.1.15,2013-10-08 08:16:00,
2013-10-08 04:21:00,74.8,69.6,29.83,WSW,258,4.0,6.0,84,0.00,,,0.00,0,Wunderground v.1.15,2013-10-08 08:21:00,
2013-10-08 04:27:00,74.8,69.6,29.83,SW,222,4.0,4.0,84,0.00,,,0.00,0,Wunderground v.1.15,2013-10-08 08:27:00,
2013-10-08 04:32:00,74.7,69.5,29.83,SW,215,3.0,5.0,84,0.00,,,0.00,0,Wunderground v.1.15,2013-10-08 08:32:00,
2013-10-08 04:38:00,74.7,69.9,29.83,WSW,243,3.0,6.0,85,0.00,,,0.00,0,Wunderground v.1.15,2013-10-08 08:38:00,
2013-10-08 04:44:00,74.6,69.8,29.83,SW,226,4.0,6.0,85,0.00,,,0.00,0,Wunderground v.1.15,2013-10-08 08:44:00,
2013-10-08 04:50:00,74.6,69.8,29.83,SW,227,5.0,6.0,85,0.00,,,0.00,0,Wunderground v.1.15,2013-10-08 08:50:00,
2013-10-08 04:55:00,74.7,69.9,29.83,SW,225,5.0,5.0,85,0.00,,,0.00,0,Wunderground v.1.15,2013-10-08 08:55:00,
2013-10-08 05:05:00,74.8,70.0,29.83,SW,226,4.0,4.0,85,0.00,,,0.00,0,Wunderground v.1.15,2013-10-08 09:05:00,
2013-10-08 05:10:00,74.7,69.9,29.83,SW,231,4.0,5.0,85,0.00,,,0.00,0,Wunderground v.1.15,2013-10-08 09:10:00,
2013-10-08 05:16:00,74.6,69.8,29.83,SW,234,4.0,6.0,85,0.00,,,0.00,0,Wunderground v.1.15,2013-10-08 09:16:00,
2013-10-08 05:21:00,74.6,69.4,29.83,SW,228,4.0,6.0,84,0.00,,,0.00,0,Wunderground v.1.15,2013-10-08 09:21:00,
2013-10-08 05:27:00,74.6,69.8,29.83,SW,215,3.0,4.0,85,0.00,,,0.00,0,Wunderground v.1.15,2013-10-08 09:27:00,
2013-10-08 05:33:00,74.6,69.8,29.83,SW,228,3.0,5.0,85,0.00,,,0.00,0,Wunderground v.1.15,2013-10-08 09:33:00,
2013-10-08 05:38:00,74.6,69.4,29.83,SW,234,3.0,7.0,84,0.00,,,0.00,0,Wunderground v.1.15,2013-10-08 09:38:00,
2013-10-08 05:44:00,74.5,69.3,29.83,WSW,237,4.0,7.0,84,0.00,,,0.00,0,Wunderground v.1.15,2013-10-08 09:44:00,
2013-10-08 05:49:00,74.4,69.2,29.83,WSW,237,2.0,4.0,84,0.00,,,0.00,0,Wunderground v.1.15,2013-10-08 09:49:00,
2013-10-08 05:55:00,74.4,69.2,29.84,SW,222,1.0,2.0,84,0.00,,,0.00,0,Wunderground v.1.15,2013-10-08 09:55:00,
2013-10-08 06:05:00,74.4,69.2,29.84,SW,231,2.0,3.0,84,0.00,,,0.00,0,Wunderground v.1.15,2013-10-08 10:05:00,
2013-10-08 06:10:00,74.4,69.2,29.84,SW,232,3.0,4.0,84,0.00,,,0.00,0,Wunderground v.1.15,2013-10-08 10:10:00,
2013-10-08 06:16:00,74.4,69.2,29.84,SW,229,4.0,4.0,84,0.00,,,0.00,0,Wunderground v.1.15,2013-10-08 10:16:00,
2013-10-08 06:22:00,74.4,69.2,29.84,SW,232,3.0,5.0,84,0.00,,,0.00,0,Wunderground v.1.15,2013-10-08 10:22:00,
2013-10-08 06:27:00,74.4,69.2,29.84,SW,236,3.0,5.0,84,0.00,,,0.00,0,Wunderground v.1.15,2013-10-08 10:27:00,
2013-10-08 06:33:00,74.4,69.2,29.84,SW,223,3.0,5.0,84,0.00,,,0.00,0,Wunderground v.1.15,2013-10-08 10:33:00,
2013-10-08 06:38:00,74.3,69.1,29.84,WSW,251,2.0,4.0,84,0.00,,,0.00,0,Wunderground v.1.15,2013-10-08 10:38:00,
2013-10-08 06:43:00,74.3,69.1,29.84,WSW,239,2.0,4.0,84,0.00,,,0.00,0,Wunderground v.1.15,2013-10-08 10:43:00,
2013-10-08 06:49:00,74.4,69.2,29.84,WSW,237,3.0,3.0,84,0.00,,,0.00,0,Wunderground v.1.15,2013-10-08 10:49:00,
2013-10-08 06:54:00,74.3,69.1,29.85,SSW,213,3.0,3.0,84,0.00,,,0.00,0,Wunderground v.1.15,2013-10-08 10:54:00,
2013-10-08 07:05:00,74.4,69.2,29.85,SSW,211,3.0,5.0,84,0.00,,,0.00,0,Wunderground v.1.15,2013-10-08 11:05:00,
2013-10-08 07:10:00,74.5,69.3,29.85,SW,229,3.0,5.0,84,0.00,,,0.00,0,Wunderground v.1.15,2013-10-08 11:10:00,
2013-10-08 07:16:00,74.5,69.3,29.85,SW,234,4.0,4.0,84,0.00,,,0.00,0,Wunderground v.1.15,2013-10-08 11:16:00,
2013-10-08 07:22:00,74.5,69.3,29.85,WSW,238,3.0,5.0,84,0.00,,,0.00,5,Wunderground v.1.15,2013-10-08 11:22:00,
2013-10-08 07:27:00,74.5,69.3,29.86,SW,233,4.0,4.0,84,0.00,,,0.00,7,Wunderground v.1.15,2013-10-08 11:27:00,
2013-10-08 07:32:00,74.5,69.3,29.86,SW,225,3.0,4.0,84,0.00,,,0.00,14,Wunderground v.1.15,2013-10-08 11:32:00,
2013-10-08 07:38:00,74.6,69.4,29.86,WSW,237,3.0,4.0,84,0.00,,,0.01,25,Wunderground v.1.15,2013-10-08 11:38:00,
2013-10-08 07:43:00,74.6,69.4,29.86,WSW,245,4.0,6.0,84,0.00,,,0.01,26,Wunderground v.1.15,2013-10-08 11:43:00,
2013-10-08 07:49:00,74.7,69.9,29.86,WSW,241,4.0,8.0,85,0.00,,,0.01,44,Wunderground v.1.15,2013-10-08 11:49:00,
2013-10-08 07:55:00,74.8,69.6,29.87,WSW,246,5.0,5.0,84,0.00,,,0.01,69,Wunderground v.1.15,2013-10-08 11:55:00,
2013-10-08 08:05:00,74.9,69.7,29.87,WSW,250,4.0,4.0,84,0.00,,,0.01,74,Wunderground v.1.15,2013-10-08 12:05:00,
2013-10-08 08:10:00,75.2,70.0,29.87,West,260,4.0,4.0,84,0.00,,,0.01,111,Wunderground v.1.15,2013-10-08 12:10:00,
2013-10-08 08:16:00,75.5,70.3,29.87,SW,224,3.0,3.0,84,0.00,,,0.01,123,Wunderground v.1.15,2013-10-08 12:16:00,
2013-10-08 08:21:00,75.7,70.5,29.87,West,265,3.0,5.0,84,0.00,,,0.01,135,Wunderground v.1.15,2013-10-08 12:21:00,
2013-10-08 08:27:00,75.9,70.7,29.87,SW,217,3.0,5.0,84,0.00,,,0.01,155,Wunderground v.1.15,2013-10-08 12:27:00,
2013-10-08 08:32:00,76.1,70.9,29.87,SW,230,3.0,5.0,84,0.00,,,0.01,163,Wunderground v.1.15,2013-10-08 12:32:00,
2013-10-08 08:38:00,76.5,71.3,29.88,SW,221,3.0,5.0,84,0.00,,,0.01,186,Wunderground v.1.15,2013-10-08 12:38:00,
2013-10-08 08:43:00,76.8,71.6,29.88,SW,225,3.0,7.0,84,0.00,,,0.01,200,Wunderground v.1.15,2013-10-08 12:43:00,
2013-10-08 08:49:00,76.9,71.7,29.88,SW,215,4.0,6.0,84,0.00,,,0.01,218,Wunderground v.1.15,2013-10-08 12:49:00,
2013-10-08 08:55:00,77.4,72.2,29.88,SW,229,4.0,4.0,84,0.00,,,0.01,239,Wunderground v.1.15,2013-10-08 12:55:00,
2013-10-08 09:05:00,78.0,72.4,29.89,WSW,257,3.0,3.0,83,0.00,,,0.01,257,Wunderground v.1.15,2013-10-08 13:05:00,
2013-10-08 09:10:00,78.4,72.8,29.89,NW,313,3.0,3.0,83,0.00,,,0.01,301,Wunderground v.1.15,2013-10-08 13:10:00,
2013-10-08 09:15:00,78.8,73.2,29.89,WSW,244,2.0,7.0,83,0.00,,,0.01,318,Wunderground v.1.15,2013-10-08 13:15:00,
2013-10-08 09:20:00,78.9,73.3,29.89,West,265,3.0,8.0,83,0.00,,,0.01,339,Wunderground v.1.15,2013-10-08 13:20:00,
2013-10-08 09:25:00,79.2,73.6,29.89,SW,227,4.0,4.0,83,0.00,,,0.01,350,Wunderground v.1.15,2013-10-08 13:25:00,
2013-10-08 09:31:00,79.5,73.9,29.89,SW,235,3.0,4.0,83,0.00,,,0.01,378,Wunderground v.1.15,2013-10-08 13:31:00,
2013-10-08 09:37:00,80.0,74.0,29.89,SW,228,3.0,9.0,82,0.00,,,0.01,425,Wunderground v.1.15,2013-10-08 13:37:00,
2013-10-08 09:43:00,80.5,74.5,29.89,WSW,257,3.0,9.0,82,0.00,,,0.01,436,Wunderground v.1.15,2013-10-08 13:43:00,
2013-10-08 09:48:00,81.1,75.1,29.89,WSW,245,2.0,3.0,82,0.00,,,0.01,489,Wunderground v.1.15,2013-10-08 13:48:00,
2013-10-08 09:54:00,81.2,74.8,29.89,WSW,245,2.0,4.0,81,0.00,,,0.01,468,Wunderground v.1.15,2013-10-08 13:54:00,
2013-10-08 09:59:00,81.1,74.7,29.89,West,261,3.0,5.0,81,0.00,,,0.01,445,Wunderground v.1.15,2013-10-08 13:59:00,
2013-10-08 10:05:00,81.2,74.8,29.90,NNW,344,2.0,2.0,81,0.00,,,0.01,512,Wunderground v.1.15,2013-10-08 14:05:00,
2013-10-08 10:10:00,81.6,74.8,29.90,West,264,2.0,4.0,80,0.00,,,0.01,599,Wunderground v.1.15,2013-10-08 14:10:00,
2013-10-08 10:15:00,81.6,74.5,29.89,West,276,3.0,4.0,79,0.00,,,0.01,621,Wunderground v.1.15,2013-10-08 14:15:00,
2013-10-08 10:21:00,81.8,74.6,29.89,WSW,245,4.0,4.0,79,0.00,,,0.01,619,Wunderground v.1.15,2013-10-08 14:21:00,
2013-10-08 10:27:00,82.0,75.2,29.89,SW,234,4.0,4.0,80,0.00,,,0.01,601,Wunderground v.1.15,2013-10-08 14:27:00,
2013-10-08 10:33:00,81.9,74.7,29.89,WSW,247,3.0,5.0,79,0.00,,,0.01,292,Wunderground v.1.15,2013-10-08 14:33:00,
2013-10-08 10:39:00,82.0,74.5,29.89,NW,313,3.0,4.0,78,0.00,,,0.01,292,Wunderground v.1.15,2013-10-08 14:39:00,
2013-10-08 10:45:00,82.7,74.8,29.89,WSW,243,3.0,3.0,77,0.00,,,0.01,591,Wunderground v.1.15,2013-10-08 14:45:00,
2013-10-08 10:50:00,83.0,75.0,29.89,West,259,3.0,4.0,77,0.00,,,0.01,606,Wunderground v.1.15,2013-10-08 14:50:00,
2013-10-08 10:56:00,83.2,74.8,29.89,WSW,241,3.0,3.0,76,0.00,,,0.01,668,Wunderground v.1.15,2013-10-08 14:56:00,
2013-10-08 11:05:00,83.4,75.0,29.89,WNW,289,3.0,3.0,76,0.00,,,0.01,664,Wunderground v.1.15,2013-10-08 15:05:00,
2013-10-08 11:10:00,82.6,74.3,29.89,WNW,283,3.0,4.0,76,0.00,,,0.01,800,Wunderground v.1.15,2013-10-08 15:10:00,
2013-10-08 11:16:00,82.8,74.8,29.89,West,277,3.0,5.0,77,0.00,,,0.01,522,Wunderground v.1.15,2013-10-08 15:16:00,
2013-10-08 11:21:00,82.8,74.5,29.89,WNW,284,2.0,4.0,76,0.00,,,0.01,181,Wunderground v.1.15,2013-10-08 15:21:00,
2013-10-08 11:26:00,83.3,74.9,29.89,SW,234,2.0,8.0,76,0.00,,,0.01,719,Wunderground v.1.15,2013-10-08 15:26:00,
2013-10-08 11:31:00,83.6,74.8,29.90,West,271,3.0,5.0,75,0.00,,,0.01,826,Wunderground v.1.15,2013-10-08 15:31:00,
2013-10-08 11:37:00,84.3,75.5,29.89,WSW,254,4.0,6.0,75,0.00,,,0.01,816,Wunderground v.1.15,2013-10-08 15:37:00,
2013-10-08 11:42:00,84.7,75.5,29.89,WSW,257,3.0,4.0,74,0.00,,,0.01,816,Wunderground v.1.15,2013-10-08 15:42:00,
2013-10-08 11:47:00,85.4,75.8,29.89,NNW,330,2.0,4.0,73,0.00,,,0.01,916,Wunderground v.1.15,2013-10-08 15:47:00,
2013-10-08 11:52:00,85.8,75.7,29.89,WSW,248,2.0,2.0,72,0.00,,,0.01,886,Wunderground v.1.15,2013-10-08 15:52:00,
2013-10-08 11:58:00,85.5,75.0,29.89,WSW,256,2.0,4.0,71,0.00,,,0.01,248,Wunderground v.1.15,2013-10-08 15:58:00,
2013-10-08 12:03:00,85.6,75.9,29.89,WNW,294,2.0,2.0,73,0.00,,,0.01,846,Wunderground v.1.15,2013-10-08 16:03:00,
2013-10-08 12:08:00,86.1,75.6,29.89,NW,317,1.0,5.0,71,0.00,,,0.01,805,Wunderground v.1.15,2013-10-08 16:08:00,
2013-10-08 12:13:00,86.3,76.2,29.89,WSW,257,2.0,3.0,72,0.00,,,0.01,765,Wunderground v.1.15,2013-10-08 16:13:00,
2013-10-08 12:19:00,85.8,74.4,29.88,SW,235,3.0,5.0,69,0.00,,,0.01,654,Wunderground v.1.15,2013-10-08 16:19:00,
2013-10-08 12:24:00,85.2,73.9,29.88,WSW,240,4.0,10.0,69,0.00,,,0.01,858,Wunderground v.1.15,2013-10-08 16:24:00,
2013-10-08 12:29:00,85.3,74.4,29.88,WSW,246,5.0,12.0,70,0.00,,,0.01,798,Wunderground v.1.15,2013-10-08 16:29:00,
2013-10-08 12:35:00,85.1,73.8,29.88,SSW,207,6.0,6.0,69,0.00,,,0.01,810,Wunderground v.1.15,2013-10-08 16:35:00,
2013-10-08 12:40:00,85.2,74.3,29.88,WSW,242,6.0,6.0,70,0.00,,,0.01,795,Wunderground v.1.15,2013-10-08 16:40:00,
2013-10-08 12:45:00,85.6,75.1,29.88,SSW,213,4.0,6.0,71,0.00,,,0.01,881,Wunderground v.1.15,2013-10-08 16:45:00,
2013-10-08 12:50:00,86.1,74.3,29.87,WSW,250,4.0,8.0,68,0.00,,,0.01,766,Wunderground v.1.15,2013-10-08 16:50:00,
2013-10-08 12:56:00,86.1,74.3,29.87,WNW,298,5.0,12.0,68,0.00,,,0.01,933,Wunderground v.1.15,2013-10-08 16:56:00,
2013-10-08 13:05:00,86.3,74.9,29.87,NW,317,4.0,4.0,69,0.00,,,0.01,603,Wunderground v.1.15,2013-10-08 17:05:00,
2013-10-08 13:10:00,86.3,74.0,29.87,SW,232,4.0,8.0,67,0.00,,,0.01,802,Wunderground v.1.15,2013-10-08 17:10:00,
2013-10-08 13:16:00,86.3,74.5,29.87,WSW,250,5.0,5.0,68,0.00,,,0.01,773,Wunderground v.1.15,2013-10-08 17:16:00,
2013-10-08 13:21:00,86.1,74.7,29.86,SW,236,6.0,9.0,69,0.00,,,0.01,722,Wunderground v.1.15,2013-10-08 17:21:00,
2013-10-08 13:26:00,86.2,73.5,29.86,WSW,246,5.0,5.0,66,0.00,,,0.01,738,Wunderground v.1.15,2013-10-08 17:26:00,
2013-10-08 13:32:00,86.1,74.3,29.86,NW,311,4.0,9.0,68,0.00,,,0.01,682,Wunderground v.1.15,2013-10-08 17:32:00,
2013-10-08 13:37:00,86.5,74.2,29.86,West,266,4.0,4.0,67,0.00,,,0.01,821,Wunderground v.1.15,2013-10-08 17:37:00,
2013-10-08 13:42:00,86.5,74.7,29.86,West,260,4.0,7.0,68,0.00,,,0.01,724,Wunderground v.1.15,2013-10-08 17:42:00,
2013-10-08 13:47:00,86.5,75.1,29.86,NW,319,5.0,5.0,69,0.00,,,0.01,747,Wunderground v.1.15,2013-10-08 17:47:00,
2013-10-08 13:52:00,87.1,73.9,29.85,WSW,257,4.0,6.0,65,0.00,,,0.01,882,Wunderground v.1.15,2013-10-08 17:52:00,
2013-10-08 13:58:00,87.4,75.1,29.85,West,259,4.0,7.0,67,0.00,,,0.01,865,Wunderground v.1.15,2013-10-08 17:58:00,
2013-10-08 14:05:00,87.6,74.8,29.85,West,277,3.0,3.0,66,0.00,,,0.01,838,Wunderground v.1.15,2013-10-08 18:05:00,
2013-10-08 14:10:00,87.5,72.9,29.85,West,263,4.0,9.0,62,0.00,,,0.01,752,Wunderground v.1.15,2013-10-08 18:10:00,
2013-10-08 14:15:00,87.5,73.3,29.85,SSW,204,4.0,4.0,63,0.00,,,0.01,700,Wunderground v.1.15,2013-10-08 18:15:00,
2013-10-08 14:20:00,87.3,73.2,29.85,West,264,4.0,6.0,63,0.00,,,0.01,687,Wunderground v.1.15,2013-10-08 18:20:00,
2013-10-08 14:26:00,87.4,73.7,29.84,WSW,252,4.0,6.0,64,0.00,,,0.01,773,Wunderground v.1.15,2013-10-08 18:26:00,
2013-10-08 14:31:00,87.4,73.3,29.84,SW,214,3.0,6.0,63,0.00,,,0.01,633,Wunderground v.1.15,2013-10-08 18:31:00,
2013-10-08 14:36:00,87.4,73.3,29.84,West,269,4.0,5.0,63,0.00,,,0.01,580,Wunderground v.1.15,2013-10-08 18:36:00,
2013-10-08 14:41:00,87.4,73.7,29.84,SW,236,3.0,5.0,64,0.00,,,0.01,802,Wunderground v.1.15,2013-10-08 18:41:00,
2013-10-08 14:46:00,87.6,73.4,29.84,WNW,294,4.0,8.0,63,0.00,,,0.01,784,Wunderground v.1.15,2013-10-08 18:46:00,
2013-10-08 14:52:00,87.1,73.0,29.84,WSW,239,5.0,8.0,63,0.00,,,0.01,330,Wunderground v.1.15,2013-10-08 18:52:00,
2013-10-08 14:57:00,87.0,73.3,29.84,WNW,284,4.0,5.0,64,0.00,,,0.01,439,Wunderground v.1.15,2013-10-08 18:57:00,
2013-10-08 15:04:00,87.0,72.9,29.84,WSW,242,3.0,5.0,63,0.00,,,0.01,742,Wunderground v.1.15,2013-10-08 19:04:00,
2013-10-08 15:10:00,88.1,73.9,29.84,WNW,282,3.0,5.0,63,0.00,,,0.01,629,Wunderground v.1.15,2013-10-08 19:10:00,
2013-10-08 15:15:00,88.5,72.8,29.84,WSW,254,3.0,5.0,60,0.00,,,0.01,710,Wunderground v.1.15,2013-10-08 19:15:00,
2013-10-08 15:21:00,88.4,73.7,29.84,WNW,300,4.0,7.0,62,0.00,,,0.01,726,Wunderground v.1.15,2013-10-08 19:21:00,
2013-10-08 15:26:00,88.3,73.6,29.84,WNW,285,4.0,7.0,62,0.00,,,0.01,529,Wunderground v.1.15,2013-10-08 19:26:00,
2013-10-08 15:31:00,87.7,73.1,29.84,WSW,256,3.0,13.0,62,0.00,,,0.01,388,Wunderground v.1.15,2013-10-08 19:31:00,
2013-10-08 15:36:00,87.4,73.3,29.84,South,173,3.0,7.0,63,0.00,,,0.01,483,Wunderground v.1.15,2013-10-08 19:36:00,
2013-10-08 15:41:00,87.3,73.2,29.84,WSW,257,2.0,7.0,63,0.00,,,0.01,281,Wunderground v.1.15,2013-10-08 19:41:00,
2013-10-08 15:46:00,87.4,73.7,29.84,West,266,2.0,2.0,64,0.00,,,0.01,589,Wunderground v.1.15,2013-10-08 19:46:00,
2013-10-08 15:52:00,87.9,73.3,29.84,WNW,292,3.0,4.0,62,0.00,,,0.01,548,Wunderground v.1.15,2013-10-08 19:52:00,
2013-10-08 15:57:00,87.7,73.1,29.84,WSW,238,3.0,3.0,62,0.00,,,0.01,218,Wunderground v.1.15,2013-10-08 19:57:00,
2013-10-08 16:05:00,87.9,74.2,29.84,SW,230,3.0,5.0,64,0.00,,,0.01,218,Wunderground v.1.15,2013-10-08 20:05:00,
2013-10-08 16:10:00,88.3,72.2,29.84,West,259,3.0,7.0,59,0.00,,,0.01,626,Wunderground v.1.15,2013-10-08 20:10:00,
2013-10-08 16:16:00,88.3,72.2,29.84,WSW,249,4.0,7.0,59,0.00,,,0.01,489,Wunderground v.1.15,2013-10-08 20:16:00,
2013-10-08 16:21:00,88.0,71.9,29.84,WSW,240,4.0,7.0,59,0.00,,,0.01,492,Wunderground v.1.15,2013-10-08 20:21:00,
2013-10-08 16:26:00,87.9,71.8,29.84,SW,233,5.0,6.0,59,0.00,,,0.01,422,Wunderground v.1.15,2013-10-08 20:26:00,
2013-10-08 16:31:00,87.8,72.2,29.84,WSW,242,4.0,6.0,60,0.00,,,0.01,297,Wunderground v.1.15,2013-10-08 20:31:00,
2013-10-08 16:36:00,87.4,71.8,29.84,WSW,238,3.0,5.0,60,0.00,,,0.01,176,Wunderground v.1.15,2013-10-08 20:36:00,
2013-10-08 16:41:00,86.7,72.1,29.84,WSW,254,3.0,5.0,62,0.00,,,0.01,163,Wunderground v.1.15,2013-10-08 20:41:00,
2013-10-08 16:47:00,86.4,72.3,29.84,West,267,3.0,3.0,63,0.00,,,0.01,480,Wunderground v.1.15,2013-10-08 20:47:00,
2013-10-08 16:52:00,86.8,72.7,29.84,WSW,248,3.0,4.0,63,0.00,,,0.01,439,Wunderground v.1.15,2013-10-08 20:52:00,
2013-10-08 16:57:00,87.1,72.5,29.84,SW,236,3.0,5.0,62,0.00,,,0.01,213,Wunderground v.1.15,2013-10-08 20:57:00,
2013-10-08 17:04:00,86.8,72.2,29.84,NW,304,3.0,3.0,62,0.00,,,0.01,264,Wunderground v.1.15,2013-10-08 21:04:00,
2013-10-08 17:10:00,86.3,72.2,29.84,WSW,248,3.0,5.0,63,0.00,,,0.01,403,Wunderground v.1.15,2013-10-08 21:10:00,
2013-10-08 17:15:00,86.6,72.5,29.84,WSW,241,3.0,3.0,63,0.00,,,0.01,394,Wunderground v.1.15,2013-10-08 21:15:00,
2013-10-08 17:21:00,86.8,72.2,29.84,SW,229,3.0,5.0,62,0.00,,,0.01,218,Wunderground v.1.15,2013-10-08 21:21:00,
2013-10-08 17:26:00,86.8,72.7,29.84,WNW,290,3.0,3.0,63,0.00,,,0.01,257,Wunderground v.1.15,2013-10-08 21:26:00,
2013-10-08 17:31:00,87.0,72.4,29.84,WNW,294,2.0,10.0,62,0.00,,,0.01,288,Wunderground v.1.15,2013-10-08 21:31:00,
2013-10-08 17:36:00,86.9,72.8,29.84,SW,233,2.0,2.0,63,0.00,,,0.01,207,Wunderground v.1.15,2013-10-08 21:36:00,
2013-10-08 17:41:00,86.5,72.4,29.84,WSW,252,2.0,5.0,63,0.00,,,0.01,123,Wunderground v.1.15,2013-10-08 21:41:00,
2013-10-08 17:47:00,85.9,71.8,29.85,West,269,3.0,3.0,63,0.00,,,0.01,230,Wunderground v.1.15,2013-10-08 21:47:00,
2013-10-08 17:52:00,86.0,71.9,29.84,WSW,242,3.0,5.0,63,0.00,,,0.01,195,Wunderground v.1.15,2013-10-08 21:52:00,
2013-10-08 17:58:00,85.9,71.4,29.85,WSW,253,3.0,4.0,62,0.00,,,0.01,123,Wunderground v.1.15,2013-10-08 21:58:00,
2013-10-08 18:05:00,85.8,71.7,29.85,West,262,3.0,3.0,63,0.00,,,0.01,100,Wunderground v.1.15,2013-10-08 22:05:00,
2013-10-08 18:10:00,85.1,71.1,29.85,WSW,248,3.0,4.0,63,0.00,,,0.01,72,Wunderground v.1.15,2013-10-08 22:10:00,
2013-10-08 18:15:00,84.7,71.6,29.85,WSW,242,2.0,4.0,65,0.00,,,0.01,63,Wunderground v.1.15,2013-10-08 22:15:00,
2013-10-08 18:20:00,84.5,71.4,29.85,West,269,2.0,4.0,65,0.00,,,0.01,49,Wunderground v.1.15,2013-10-08 22:20:00,
2013-10-08 18:26:00,84.2,71.6,29.85,West,281,2.0,4.0,66,0.00,,,0.01,39,Wunderground v.1.15,2013-10-08 22:26:00,
2013-10-08 18:31:00,83.8,71.2,29.85,SW,225,2.0,4.0,66,0.00,,,0.01,33,Wunderground v.1.15,2013-10-08 22:31:00,
2013-10-08 18:36:00,83.6,71.5,29.85,WSW,242,2.0,2.0,67,0.00,,,0.01,28,Wunderground v.1.15,2013-10-08 22:36:00,
2013-10-08 18:42:00,83.4,71.7,29.86,WSW,254,2.0,2.0,68,0.00,,,0.01,21,Wunderground v.1.15,2013-10-08 22:42:00,
2013-10-08 18:47:00,83.2,71.5,29.86,SW,234,1.0,2.0,68,0.00,,,0.01,16,Wunderground v.1.15,2013-10-08 22:47:00,
2013-10-08 18:52:00,83.0,71.8,29.86,West,265,1.0,3.0,69,0.00,,,0.01,11,Wunderground v.1.15,2013-10-08 22:52:00,
2013-10-08 18:57:00,82.8,71.6,29.86,West,266,1.0,3.0,69,0.00,,,0.01,0,Wunderground v.1.15,2013-10-08 22:57:00,
2013-10-08 19:05:00,82.7,72.3,29.86,WSW,248,1.0,1.0,71,0.00,,,0.01,0,Wunderground v.1.15,2013-10-08 23:05:00,
2013-10-08 19:10:00,82.2,71.9,29.86,West,267,1.0,1.0,71,0.00,,,0.01,0,Wunderground v.1.15,2013-10-08 23:10:00,
2013-10-08 19:15:00,82.0,71.7,29.86,West,267,1.0,1.0,71,0.00,,,0.01,0,Wunderground v.1.15,2013-10-08 23:15:00,
2013-10-08 19:20:00,81.8,71.5,29.86,WSW,241,1.0,3.0,71,0.00,,,0.01,0,Wunderground v.1.15,2013-10-08 23:20:00,
2013-10-08 19:26:00,81.6,71.3,29.86,WSW,252,1.0,1.0,71,0.00,,,0.01,0,Wunderground v.1.15,2013-10-08 23:26:00,
2013-10-08 19:31:00,81.4,71.1,29.87,West,268,1.0,2.0,71,0.00,,,0.01,0,Wunderground v.1.15,2013-10-08 23:31:00,
2013-10-08 19:37:00,81.2,70.9,29.87,West,267,1.0,2.0,71,0.00,,,0.01,0,Wunderground v.1.15,2013-10-08 23:37:00,
2013-10-08 19:42:00,81.1,71.2,29.87,WSW,257,1.0,2.0,72,0.00,,,0.01,0,Wunderground v.1.15,2013-10-08 23:42:00,
2013-10-08 19:47:00,80.9,71.0,29.87,WSW,240,1.0,2.0,72,0.00,,,0.01,0,Wunderground v.1.15,2013-10-08 23:47:00,
2013-10-08 19:53:00,80.8,70.9,29.87,WSW,246,1.0,3.0,72,0.00,,,0.01,0,Wunderground v.1.15,2013-10-08 23:53:00,
2013-10-08 19:58:00,80.6,70.7,29.87,WSW,238,1.0,2.0,72,0.00,,,0.01,0,Wunderground v.1.15,2013-10-08 23:58:00,
2013-10-08 20:04:00,80.3,70.4,29.87,West,271,1.0,1.0,72,0.00,,,0.01,0,Wunderground v.1.15,2013-10-09 00:04:00,
2013-10-08 20:10:00,80.2,70.8,29.87,West,266,1.0,2.0,73,0.00,,,0.01,0,Wunderground v.1.15,2013-10-09 00:10:00,
2013-10-08 20:15:00,80.0,70.6,29.87,West,275,1.0,1.0,73,0.00,,,0.01,0,Wunderground v.1.15,2013-10-09 00:15:00,
2013-10-08 20:21:00,79.8,70.4,29.88,NW,306,1.0,2.0,73,0.00,,,0.01,0,Wunderground v.1.15,2013-10-09 00:21:00,
2013-10-08 20:26:00,79.6,70.2,29.88,WSW,244,1.0,1.0,73,0.00,,,0.01,0,Wunderground v.1.15,2013-10-09 00:26:00,
2013-10-08 20:31:00,79.6,70.2,29.88,WSW,257,1.0,1.0,73,0.00,,,0.01,0,Wunderground v.1.15,2013-10-09 00:31:00,
2013-10-08 20:36:00,79.5,70.1,29.88,West,260,1.0,2.0,73,0.00,,,0.01,0,Wunderground v.1.15,2013-10-09 00:36:00,
2013-10-08 20:42:00,79.5,70.1,29.88,WSW,256,1.0,3.0,73,0.00,,,0.01,0,Wunderground v.1.15,2013-10-09 00:42:00,
2013-10-08 20:47:00,79.4,70.0,29.89,West,267,1.0,2.0,73,0.00,,,0.01,0,Wunderground v.1.15,2013-10-09 00:47:00,
2013-10-08 20:52:00,79.3,69.9,29.89,WSW,251,1.0,2.0,73,0.00,,,0.01,0,Wunderground v.1.15,2013-10-09 00:52:00,
2013-10-08 20:57:00,79.1,69.7,29.89,West,259,1.0,2.0,73,0.00,,,0.01,0,Wunderground v.1.15,2013-10-09 00:57:00,
2013-10-08 21:05:00,79.0,70.0,29.90,West,281,1.0,1.0,74,0.00,,,0.01,0,Wunderground v.1.15,2013-10-09 01:05:00,
2013-10-08 21:10:00,78.6,69.6,29.90,WNW,297,1.0,2.0,74,0.00,,,0.01,0,Wunderground v.1.15,2013-10-09 01:10:00,
2013-10-08 21:16:00,78.4,69.8,29.90,West,279,1.0,1.0,75,0.00,,,0.01,0,Wunderground v.1.15,2013-10-09 01:16:00,
2013-10-08 21:22:00,78.2,69.6,29.90,NW,322,1.0,3.0,75,0.00,,,0.01,0,Wunderground v.1.15,2013-10-09 01:22:00,
2013-10-08 21:27:00,78.1,69.5,29.90,WSW,253,0.0,5.0,75,0.00,,,0.01,0,Wunderground v.1.15,2013-10-09 01:27:00,
2013-10-08 21:32:00,77.9,69.3,29.90,NNW,331,0.0,5.0,75,0.00,,,0.01,0,Wunderground v.1.15,2013-10-09 01:32:00,
2013-10-08 21:37:00,77.8,69.6,29.90,WNW,300,0.0,0.0,76,0.00,,,0.01,0,Wunderground v.1.15,2013-10-09 01:37:00,
2013-10-08 21:43:00,77.5,69.3,29.90,West,281,0.0,4.0,76,0.00,,,0.01,0,Wunderground v.1.15,2013-10-09 01:43:00,
2013-10-08 21:48:00,77.4,69.2,29.90,West,273,0.0,3.0,76,0.00,,,0.01,0,Wunderground v.1.15,2013-10-09 01:48:00,
2013-10-08 21:53:00,77.2,69.4,29.90,West,264,1.0,3.0,77,0.00,,,0.01,0,Wunderground v.1.15,2013-10-09 01:53:00,
2013-10-08 21:59:00,77.1,69.3,29.90,WSW,247,1.0,4.0,77,0.00,,,0.01,0,Wunderground v.1.15,2013-10-09 01:59:00,
2013-10-08 22:05:00,77.1,69.3,29.90,WNW,283,1.0,1.0,77,0.00,,,0.01,0,Wunderground v.1.15,2013-10-09 02:05:00,
2013-10-08 22:10:00,76.9,69.1,29.90,WNW,283,1.0,1.0,77,0.00,,,0.01,0,Wunderground v.1.15,2013-10-09 02:10:00,
2013-10-08 22:16:00,76.7,69.3,29.90,West,263,0.0,0.0,78,0.00,,,0.01,0,Wunderground v.1.15,2013-10-09 02:16:00,
2013-10-08 22:21:00,76.4,69.4,29.90,WSW,257,1.0,2.0,79,0.00,,,0.01,0,Wunderground v.1.15,2013-10-09 02:21:00,
2013-10-08 22:27:00,76.2,69.2,29.90,West,262,1.0,1.0,79,0.00,,,0.01,0,Wunderground v.1.15,2013-10-09 02:27:00,
2013-10-08 22:32:00,76.0,69.0,29.90,West,275,1.0,2.0,79,0.00,,,0.01,0,Wunderground v.1.15,2013-10-09 02:32:00,
2013-10-08 22:38:00,75.9,68.9,29.90,West,261,1.0,3.0,79,0.00,,,0.01,0,Wunderground v.1.15,2013-10-09 02:38:00,
2013-10-08 22:43:00,75.8,69.2,29.90,WSW,257,1.0,3.0,80,0.00,,,0.01,0,Wunderground v.1.15,2013-10-09 02:43:00,
2013-10-08 22:48:00,75.6,69.0,29.90,West,279,1.0,2.0,80,0.00,,,0.01,0,Wunderground v.1.15,2013-10-09 02:48:00,
2013-10-08 22:54:00,75.4,68.8,29.90,WSW,253,1.0,2.0,80,0.00,,,0.01,0,Wunderground v.1.15,2013-10-09 02:54:00,
2013-10-08 22:59:00,75.2,69.0,29.90,West,259,1.0,1.0,81,0.00,,,0.01,0,Wunderground v.1.15,2013-10-09 02:59:00,
2013-10-08 23:05:00,75.0,68.8,29.90,West,264,1.0,2.0,81,0.00,,,0.01,0,Wunderground v.1.15,2013-10-09 03:05:00,
2013-10-08 23:10:00,74.8,68.6,29.90,WSW,251,1.0,2.0,81,0.00,,,0.01,0,Wunderground v.1.15,2013-10-09 03:10:00,
2013-10-08 23:16:00,74.7,68.5,29.91,West,259,0.0,1.0,81,0.00,,,0.01,0,Wunderground v.1.15,2013-10-09 03:16:00,
2013-10-08 23:21:00,74.5,68.6,29.91,West,259,0.0,1.0,82,0.00,,,0.01,0,Wunderground v.1.15,2013-10-09 03:21:00,
2013-10-08 23:26:00,74.3,68.4,29.90,West,263,0.0,2.0,82,0.00,,,0.01,0,Wunderground v.1.15,2013-10-09 03:26:00,
2013-10-08 23:31:00,74.3,68.4,29.91,West,263,0.0,2.0,82,0.00,,,0.01,0,Wunderground v.1.15,2013-10-09 03:31:00,
2013-10-08 23:36:00,74.2,68.3,29.90,West,263,0.0,1.0,82,0.00,,,0.01,0,Wunderground v.1.15,2013-10-09 03:36:00,
2013-10-08 23:41:00,74.1,68.3,29.91,West,263,0.0,1.0,82,0.00,,,0.01,0,Wunderground v.1.15,2013-10-09 03:41:00,
2013-10-08 23:47:00,74.0,68.2,29.91,West,263,0.0,1.0,82,0.00,,,0.01,0,Wunderground v.1.15,2013-10-09 03:47:00,
2013-10-08 23:52:00,73.8,68.0,29.91,WSW,255,0.0,1.0,82,0.00,,,0.01,0,Wunderground v.1.15,2013-10-09 03:52:00,
2013-10-08 23:57:00,73.7,67.9,29.91,WSW,257,1.0,2.0,82,0.00,,,0.01,0,Wunderground v.1.15,2013-10-09 03:57:00,